Home > Time Zones > World Clock > Weather > Iran > Tehran > Past weeks

Flag for Iran Weather past 2 weeks in Tehran, Iran

Now
82 °F

Sunny.


Feels Like: 80 °F
Forecast: 69 / 92 °F
Wind: 9 mph from Southwest

Location: Tehran-Mehrabad

Current Time: Aug 22, 2014 at 10:27:42 AM

Latest Report: Aug 22, 2014 at 10:00 AM


Visibility: 10 mi

Pressure: 30.04 "Hg

Humidity: 23%

Dew point: 41 °F

Location of TehranLocation

Historic Weather in Tehran — Graph

°F

Tehran temperature yesterday

Maximum temperature yesterday: 97 °F (at 3:30 PM)
Minimum temperature yesterday: 79 °F (at 6:00 AM)
Average temperature yesterday: 89 °F

Past Weeks' High & Low Weather Summary

 TemperatureHumidityPressure
High106 °F (Aug 7, 4:30 PM)42% (Aug 14, 8:00 AM)30.09 "Hg (Aug 14, 8:00 AM)
Low72 °F (Aug 15, 6:00 AM)5% (Aug 8, 4:30 PM)29.68 "Hg (Aug 7, 5:00 PM)
Average90 °F16%29.91 "Hg
* Reported Aug 7 8:30 AM — Aug 22 9:00 AM, Tehran, Weather by CustomWeather, © 2014

Note: Actual official high and low records may vary slightly from our data, if they occured in-between our weather recording intervals... More about our weather records

Advertising

Tehran weather history for previous 24 hours

 ConditionsComfort  
Time TempWeatherWind HumidityBarometerVisibility
9:00 AM
Aug 22
82 °FSunny.7 mph17%30.01 "Hg10 mi
8:30 AM82 °FSunny.7 mph16%30.01 "Hg10 mi
8:00 AM81 °FSunny.No wind21%30.01 "Hg10 mi
7:30 AM79 °FClear.5 mph20%29.98 "Hg10 mi
7:00 AM77 °FClear.5 mph24%29.98 "Hg10 mi
6:30 AM77 °FClear.7 mph22%29.98 "Hg10 mi
6:00 AM77 °FClear.7 mph26%29.95 "Hg10 mi
5:30 AM77 °FClear.5 mph26%29.95 "Hg10 mi
5:00 AM77 °FClear.5 mph26%29.95 "Hg10 mi
4:30 AM79 °FClear.5 mph23%29.95 "Hg10 mi
4:00 AM81 °FPassing clouds.5 mph21%29.95 "HgN/A
3:30 AM81 °FPassing clouds.5 mph21%29.95 "HgN/A
3:00 AM82 °FPassing clouds.5 mph21%29.95 "HgN/A
1:30 AM86 °FPassing clouds.7 mph20%29.95 "HgN/A
1:00 AM88 °FPassing clouds.7 mph19%29.95 "HgN/A
12:30 AM88 °FPassing clouds.5 mph19%29.95 "HgN/A
12:00 AM90 °FPassing clouds.5 mph17%29.95 "HgN/A
11:30 PM
Aug 21
90 °FPassing clouds.5 mph17%29.95 "HgN/A
11:00 PM90 °FPassing clouds.5 mph15%29.92 "HgN/A
10:30 PM90 °FPassing clouds.5 mph15%29.92 "HgN/A
10:00 PM91 °FPassing clouds.No wind14%29.92 "HgN/A
9:30 PM91 °FPassing clouds.7 mph12%29.92 "HgN/A
9:00 PM91 °FPassing clouds.9 mph11%29.92 "HgN/A
8:30 PM93 °FPassing clouds.9 mph11%29.92 "HgN/A
8:00 PM93 °FPassing clouds.7 mph11%29.89 "HgN/A
7:30 PM95 °FPassing clouds.9 mph10%29.89 "HgN/A
7:00 PM95 °FPassing clouds.9 mph11%29.89 "HgN/A
6:30 PM97 °FPassing clouds.9 mph9%29.89 "HgN/A
6:00 PM97 °FPassing clouds.9 mph9%29.92 "HgN/A
5:30 PM97 °FPassing clouds.7 mph9%29.92 "HgN/A
5:00 PM97 °FPassing clouds.7 mph9%29.92 "HgN/A
4:30 PM97 °FPassing clouds.7 mph9%29.92 "HgN/A
4:00 PM97 °FPassing clouds.5 mph9%29.92 "HgN/A
3:30 PM97 °FPassing clouds.7 mph9%29.95 "HgN/A
3:00 PM95 °FPassing clouds.5 mph9%29.95 "HgN/A
2:30 PM95 °FPassing clouds.7 mph10%29.95 "HgN/A
2:00 PM93 °FPassing clouds.7 mph10%29.98 "HgN/A
1:30 PM93 °FPassing clouds.7 mph10%29.98 "HgN/A
1:00 PM93 °FSunny.12 mph11%29.98 "Hg10 mi
12:30 PM93 °FSunny.9 mph11%30.01 "Hg10 mi
12:00 PM91 °FSunny.12 mph12%30.01 "Hg10 mi
11:30 AM91 °FSunny.5 mph12%30.04 "Hg10 mi
11:00 AM91 °FSunny.5 mph11%30.04 "Hg10 mi
10:30 AM90 °FSunny.5 mph12%30.04 "Hg10 mi
10:00 AM90 °FSunny.7 mph12%30.04 "Hg10 mi
Weather by CustomWeather, © 2014

See weather overviewHow to use our weather pages